Pittsburgh Allegheny Co., PA

10:53 PM EST on November 19, 2019 (GMT -0500)
Allegheny County

Weather History for KAGC - October, 2019

Change the Weather History Date:

Wednesday, October 23, 2019

  Actual Average Record
Temperature  
Mean Temperature 50 °F -  
Max Temperature 57 °F 61 °F 78 °F (2001)
Min Temperature 44 °F 33 °F 26 °F (1997)
Degree Days  
Heating Degree Days 16    
Moisture  
Dew Point 35 °F    
Average Humidity 59    
Maximum Humidity 82    
Minimum Humidity 36    
Precipitation  
Precipitation 0.00 in - - ()
Sea Level Pressure  
Sea Level Pressure 30.07 in    
Wind  
Wind Speed 9 mph (SW)    
Max Wind Speed 17 mph    
Max Gust Speed 31 mph    
Visibility 10 miles    
Events      
Averages and records for this station are not official NWS values.
T = Trace of Precipitation, MM = Missing Value Source: NWS Daily Summary

Daily Weather History Graph

Daily Weather History Graph

Search for Another Location

Airport or City:

Astronomy

Oct. 23, 2019 Rise Set
Actual Time 7:38 AM EDT 6:28 PM EDT
Civil Twilight 7:11 AM EDT 6:56 PM EDT
Nautical Twilight 6:39 AM EDT 7:28 PM EDT
Astronomical Twilight 6:07 AM EDT 7:59 PM EDT
Moon 1:54 AM EDT (10/23) 4:19 PM EDT (10/23)
Length of Visible Light 11h 45m
Length of Day
10h 49m
Waning Crescent, 27% of the Moon is Illuminated
Oct 23
Waning Crescent
Oct 27
New
Nov 4
First Quarter
Nov 12
Full
Nov 19
Last Quarter

Hourly Weather History & Observations

Time (EDT) Temp. Windchill Dew Point Humidity Pressure Visibility Wind Dir Wind Speed Gust Speed Precip Events Conditions
12:53 AM 48.9 °F - 42.1 °F 77% 29.91 in 10.0 mi SSW 5.8 mph - N/A   Clear
1:53 AM 48.0 °F - 41.0 °F 77% 29.90 in 10.0 mi WSW 6.9 mph - N/A   Clear
2:53 AM 48.0 °F - 39.9 °F 74% 29.92 in 10.0 mi West 10.4 mph - N/A   Partly Cloudy
3:53 AM 46.9 °F - 39.9 °F 77% 29.93 in 10.0 mi SW 8.1 mph - N/A   Scattered Clouds
4:53 AM 46.0 °F 41.9 °F 39.9 °F 79% 29.95 in 10.0 mi SSW 8.1 mph - N/A   Clear
5:53 AM 45.0 °F 40.6 °F 39.0 °F 80% 29.97 in 10.0 mi SSW 8.1 mph - N/A   Clear
6:53 AM 45.0 °F 40.1 °F 39.0 °F 80% 29.99 in 10.0 mi SSW 9.2 mph - N/A   Clear
7:53 AM 44.1 °F 39.5 °F 39.0 °F 82% 30.01 in 10.0 mi SW 8.1 mph - N/A   Clear
8:53 AM 46.0 °F 41.4 °F 39.9 °F 79% 30.04 in 10.0 mi SW 9.2 mph - N/A   Clear
9:53 AM 48.9 °F - 39.9 °F 71% 30.06 in 10.0 mi SW 12.7 mph - N/A   Clear
10:53 AM 51.1 °F - 37.9 °F 61% 30.08 in 10.0 mi West 16.1 mph 20.7 mph N/A   Clear
11:53 AM 53.1 °F - 33.1 °F 47% 30.09 in 10.0 mi WSW 16.1 mph 31.1 mph N/A   Scattered Clouds
12:53 PM 53.1 °F - 30.9 °F 43% 30.10 in 10.0 mi West 17.3 mph 29.9 mph N/A   Partly Cloudy
1:53 PM 55.0 °F - 32.0 °F 42% 30.10 in 10.0 mi WSW 17.3 mph 26.5 mph N/A   Partly Cloudy
2:53 PM 55.0 °F - 30.0 °F 38% 30.11 in 10.0 mi West 12.7 mph 23.0 mph N/A   Partly Cloudy
3:53 PM 55.9 °F - 30.0 °F 37% 30.12 in 10.0 mi West 12.7 mph 29.9 mph N/A   Clear
4:53 PM 55.9 °F - 28.9 °F 36% 30.14 in 10.0 mi West 9.2 mph 23.0 mph N/A   Clear
5:53 PM 55.0 °F - 30.0 °F 38% 30.15 in 10.0 mi WSW 9.2 mph 18.4 mph N/A   Clear
6:53 PM 53.1 °F - 30.0 °F 41% 30.17 in 10.0 mi SW 6.9 mph - N/A   Clear
7:53 PM 50.0 °F - 30.0 °F 46% 30.18 in 10.0 mi SSW 6.9 mph - N/A   Clear
8:53 PM 48.9 °F - 30.9 °F 50% 30.19 in 10.0 mi SSW 6.9 mph - N/A   Clear
9:53 PM 48.0 °F - 32.0 °F 54% 30.19 in 10.0 mi South 6.9 mph - N/A   Clear
10:53 PM 46.9 °F - 32.0 °F 56% 30.21 in 10.0 mi SSW 9.2 mph - N/A   Clear
11:53 PM 45.0 °F 40.6 °F 32.0 °F 60% 30.21 in 10.0 mi South 8.1 mph - N/A   Clear